Location: 81360 Arifat, France
(43.7204°N, 2.3408°E)
Time: 22:16:12
(UTC+01:00)

S-56A Canister/Altair - All Passes

Search period start: 10 December 2025 00:00
Search period end: 20 December 2025 00:00
Orbit: 632 x 2485 km, 38.9° (Epoch: 10 December)

Date Brightness Start Highest point End Pass type
(mag) Time Alt. Az. Time Alt. Az. Time Alt. Az.
10 Dec - 00:38:37 10° WSW 00:44:16 59° S 00:52:41 10° ESE night (unlit)
10 Dec - 02:41:31 10° W 02:48:13 44° SSW 02:58:06 10° SE visible
10 Dec - 04:46:01 10° WSW 04:52:27 21° SSW 05:00:37 10° S visible
10 Dec - 22:02:06 10° SW 22:06:20 34° SSE 22:11:42 10° E night (unlit)
11 Dec - 00:04:11 10° WSW 00:09:27 57° S 00:17:08 10° ESE night (unlit)
11 Dec - 02:06:58 10° W 02:13:15 45° SSW 02:22:32 10° SE visible
11 Dec - 04:11:04 10° W 04:17:21 23° SSW 04:25:33 10° SSE visible
11 Dec - 21:27:50 10° SW 21:31:45 28° SSE 21:36:26 10° E night (unlit)
11 Dec - 23:29:45 10° WSW 23:34:42 55° S 23:41:41 10° E night (unlit)
12 Dec - 01:32:27 10° W 01:38:19 47° SSW 01:46:59 10° SE night (unlit)
12 Dec - 03:36:13 10° W 03:42:18 25° SSW 03:50:24 10° SSE visible
12 Dec - 20:53:36 10° SSW 20:57:11 24° SSE 21:01:14 10° E visible
12 Dec - 22:55:19 10° WSW 22:59:59 52° S 23:06:20 10° E night (unlit)
13 Dec - 00:57:57 10° W 01:03:27 48° SSW 01:11:30 10° ESE night (unlit)
13 Dec - 03:01:28 10° W 03:07:18 26° SSW 03:15:11 10° SSE visible
13 Dec - 20:19:25 10° SSW 20:22:38 20° SSE 20:26:04 10° ESE visible
13 Dec - 22:20:53 10° WSW 22:25:19 48° S 22:31:05 10° E night (unlit)
14 Dec - 00:23:29 10° W 00:28:39 49° S 00:36:03 10° ESE night (unlit)
14 Dec - 02:26:48 10° W 02:32:22 28° SSW 02:39:57 10° SSE visible
14 Dec - 19:45:18 10° S 19:48:04 16° SSE 19:50:53 10° ESE visible
14 Dec - 21:46:26 10° WSW 21:50:42 44° SSE 21:55:55 10° E night (unlit)
14 Dec - 23:49:01 10° W 23:53:54 50° S 00:00:42 10° ESE night (unlit)
15 Dec - 01:52:11 10° W 01:57:27 29° SSW 02:04:42 10° SSE night (unlit)
15 Dec - 04:00:14 10° SW 04:01:15 10° SW 04:02:17 10° SSW visible
15 Dec - 19:11:18 10° S 19:13:28 13° SSE 19:15:39 10° ESE visible
15 Dec - 21:11:58 10° SW 21:16:06 39° SSE 21:20:52 10° E visible
15 Dec - 23:14:32 10° W 23:19:11 50° S 23:25:25 10° ESE night (unlit)
16 Dec - 01:17:36 10° W 01:22:37 30° SSW 01:29:28 10° SE night (unlit)
16 Dec - 03:23:59 10° SW 03:26:18 11° SSW 03:28:52 10° SSW night (unlit)
16 Dec - 18:37:34 10° SSE 18:38:52 11° SSE 18:40:08 10° SE visible
16 Dec - 20:37:28 10° SW 20:41:30 35° SSE 20:45:54 10° E visible
16 Dec - 22:40:03 10° WSW 22:44:30 50° S 22:50:13 10° ESE night (unlit)
17 Dec - 00:43:04 10° W 00:47:49 32° SSW 00:54:16 10° SE night (unlit)
17 Dec - 02:48:33 10° SW 02:51:24 13° SSW 02:54:37 10° S night (unlit)
17 Dec - 20:02:56 10° SW 20:06:56 31° SSE 20:11:00 10° E visible
17 Dec - 22:05:32 10° WSW 22:09:51 49° S 22:15:07 10° ESE night (unlit)
18 Dec - 00:08:31 10° W 00:13:03 33° SSW 00:19:07 10° SE night (unlit)
18 Dec - 02:13:25 10° WSW 02:16:32 14° SSW 02:20:08 10° S night (unlit)
18 Dec - 19:28:22 10° SW 19:32:20 28° SSE 19:36:09 10° E visible
18 Dec - 21:30:59 10° WSW 21:35:14 48° S 21:40:08 10° ESE visible
18 Dec - 23:33:59 10° W 23:38:21 35° SSW 23:44:00 10° SE night (unlit)
19 Dec - 01:38:28 10° WSW 01:41:42 15° SSW 01:45:31 10° S night (unlit)
19 Dec - 18:53:46 10° SW 18:57:45 25° SSE 19:01:23 10° ESE visible
19 Dec - 20:56:22 10° WSW 21:00:37 46° S 21:05:13 10° ESE visible
19 Dec - 22:59:26 10° W 23:03:41 36° SSW 23:08:58 10° SE night (unlit)
